Regional Weather Roundup
Issued by NWS

Home | Current Version | Previous Version | Graphics & Text | Print | Product List | Glossary On
Versions: 1 2 3 4 5 6 7 8 9 10 11 12 13 14 15 16 17 18 19 20 21 22 23 24 25 26 27 28 29 30 31 32 33 34 35 36 37 38 39 40 41 42 43 44 45 46 47 48 49 50
000
ASUS43 KOAX 241602
RWRNE

WEATHER ROUNDUP FOR NEBRASKA
NATIONAL WEATHER SERVICE OMAHA NE
1000 AM CST SAT JAN 24 2015

NOTES: SATELLITE DATA IS BEING USED TO AUGMENT CLOUD COVER ABOVE
       12000 FEET.
       "FAIR" INDICATES FEW OR NO CLOUDS BELOW 12,000 FEET WITH NO
       SIGNIFICANT WEATHER AND/OR OBSTRUCTIONS TO VISIBILITY.

  * THESE STATIONS DO NOT REPORT WEATHER SUCH AS RAIN...SNOW OR FOG.

NEZ001>004-019>022-054>056-241700-
NEBRASKA PANHANDLE

CITY           SKY/WX    TMP DP  RH WIND       PRES   REMARKS
SCOTTSBLUFF    CLOUDY    41  25  53 W15       29.98F
ALLIANCE       CLOUDY    35  27  72 W8        29.95F WCI  29
CHADRON        CLOUDY    37  27  67 W12       29.93F WCI  29
SIDNEY         CLOUDY    37  19  48 W16       30.00F WCI  28
$$

NEZ057>060-069>072-079>082-241700-
SOUTHWEST NEBRASKA

CITY           SKY/WX    TMP DP  RH WIND       PRES   REMARKS
NORTH PLATTE   CLOUDY    35  26  69 W13       29.96F WCI  26
IMPERIAL       CLOUDY    35  24  64 W9        30.00F WCI  28
LEXINGTON      PTSUNNY   34  29  83 W8        29.96F WCI  27
MCCOOK         MOSUNNY   37  26  64 W10       30.00F WCI  30
$$

NEZ005>010-023>029-035>040-094-241700-
NORTH CENTRAL NEBRASKA

CITY           SKY/WX    TMP DP  RH WIND       PRES   REMARKS
VALENTINE      CLOUDY    38  28  67 W8        29.85F WCI  32
AINSWORTH      CLOUDY    38  28  66 W10       29.85F WCI  31
BROKEN BOW     CLOUDY    36  28  73 W12       29.91F WCI  28
ORD            PTSUNNY   39  27  62 W10       29.89F WCI  32
$$

NEZ041-046>049-061>064-073>077-083>087-241700-
SOUTH CENTRAL NEBRASKA

CITY           SKY/WX    TMP DP  RH WIND       PRES   REMARKS
GRAND ISLAND   SUNNY     41  29  62 W14       29.92F
AURORA         SUNNY     40  29  67 W14       29.91F WCI  32
HASTINGS       SUNNY     40  28  62 W16       29.92F WCI  31
KEARNEY *      SUNNY     41  27  56 W16G22    29.94F
$$

NEZ011>018-030>034-042>045-241700-
NORTHEAST NEBRASKA

CITY           SKY/WX    TMP DP  RH WIND       PRES   REMARKS
NORFOLK        MOSUNNY   42  30  62 W12       29.82F
ALBION         MOSUNNY   41  29  64 W8        29.86F
BLAIR          SUNNY     39  31  72 W10       29.84F WCI  32
COLUMBUS *     SUNNY     37  28  70 W13       29.88F WCI  29
FREMONT        SUNNY     41  32  70 W10       29.86F
TEKAMAH        SUNNY     40  32  73 W7        29.84F
$$

NEZ050>053-065>068-078-088>093-241700-
SOUTHEAST NEBRASKA

CITY           SKY/WX    TMP DP  RH WIND       PRES   REMARKS
LINCOLN        SUNNY     39  29  67 W8        29.91F WCI  33
OMAHA EPPLEY   PTSUNNY   40  30  67 CALM      29.86F
FALLS CITY     SUNNY     41  30  65 W12       29.91F
NEBRASKA CITY  SUNNY     38  28  67 W14       29.88S WCI  30
$$

NEZ044-045-051>053-067-241700-
OMAHA AREA

CITY           SKY/WX    TMP DP  RH WIND       PRES   REMARKS
OMAHA EPPLEY   PTSUNNY   40  30  67 CALM      29.86F
BLAIR          SUNNY     39  31  72 W10       29.84F WCI  32
FREMONT        SUNNY     41  32  70 W10       29.86F
OFFUTT AFB     SUNNY     38  31  74 W8        29.86F WCI  32
WAHOO          FAIR      41  30  65 W10       29.86F
$$


USA.gov is the U.S. government's official web portal to all federal, state and local government web resources and services.